カタログに戻る

CZ-6A DEB

運用中PO
NORAD 61462·DEBRIS·🇨🇳 China

打ち上げ Aug 6, 2024 から Taiyuan Satellite Launch Center

Loading…

次のパス (今後24時間)

TLE

最新Source: Space-Track

元期: Sep 12, 2026, 12:06 UTC

1 61462U 24140ZU  26255.50429289  .00002231  00000-0  83842-3 0  9995
2 61462  89.1123 274.3915 0074053 299.8144  59.5703 14.29791898104071

AllMySatでCZ-6A DEBをリアルタイム追跡

Download on the App Store